Probability
9 6 6 7 7 6 6 5 3 3 10 20 30 33 29 19 9 6 4 1 0 0 0 0 0 0 0 0 0 0 0 0 0 1 3 4 5 6
10 7 6 8 7 6 6 6 6 6 10 17 22 23 19 12 6 4 3 1 0 0 0 0 0 0 0 0 0 0 0 0 0 0 1 2 3 3
8 6 5 6 6 6 6 7 7 7 7 10 12 11 9 6 4 2 1 0 0 0 0 0 0 0 0 0 0 0 0 0 0 0 0 0 0 0
5 4 4 3 3 5 6 6 5 4 3 4 4 4 5 5 3 2 1 0 0 0 0 0 0 0 0 0 0 0 0 0 0 0 0 0 0 0
4 3 2 2 2 4 6 5 3 1 1 1 0 1 3 3 2 1 0 0 0 0 0 0 0 0 0 0 0 0 0 0 0 0 0 0 0 0
4 2 1 2 2 3 4 4 3 1 1 0 0 1 2 2 1 0 0 0 0 0 0 0 0 0 0 0 0 0 0 0 0 0 0 0 0 0
4 2 1 1 1 1 3 4 3 1 0 0 0 1 1 1 0 0 0 0 0 0 0 0 0 0 0 0 0 0 0 0 0 0 0 0 0 0
2 1 0 0 0 0 1 3 2 1 0 0 1 1 0 0 0 0 0 0 0 0 0 0 0 0 0 0 0 0 0 0 0 0 0 0 0 0
1 0 0 0 0 0 0 1 1 0 0 0 0 0 0 0 0 0 0 0 0 0 0 0 0 0 0 0 0 0 0 0 0 0 0 0 0 0
1 0 0 0 0 0 0 0 0 0 0 0 0 0 0 0 0 0 0 0 0 0 0 0 0 0 0 0 0 0 0 0 0 0 0 0 0 0
0 0 0 0 0 0 0 0 0 0 0 0 0 0 0 0 0 0 0 0 0 0 0 0 0 0 0 0 0 0 0 0 0 0 0 0 0 0
0 0 0 0 0 0 0 0 0 0 0 0 0 0 0 0 0 0 0 0 0 0 0 0 0 0 0 0 0 0 0 0 0 0 0 0 0 0
0 0 0 0 0 0 0 0 0 0 0 0 0 0 0 0 0 0 0 0 0 0 0 0 0 0 0 0 0 0 0 0 0 0 0 0 0 0
0 0 0 0 0 0 0 0 0 0 0 0 0 0 0 0 0 0 0 0 0 0 0 0 0 0 0 0 0 0 0 0 0 0 0 0 0 0
0 0 0 0 0 0 0 0 0 0 0 0 0 0 0 0 0 0 0 0 0 0 0 0 0 0 0 0 0 0 0 0 0 0 0 0 0 0
0 0 0 0 0 0 0 0 0 0 0 0 0 0 0 0 0 0 0 0 0 0 0 0 0 0 0 0 0 0 0 0 0 0 0 0 0 0
0 0 0 0 0 0 0 0 0 0 0 0 0 0 0 0 0 0 0 0 0 0 0 0 0 0 0 0 0 0 0 0 0 0 0 0 0 0
0 0 0 0 0 0 0 0 0 0 0 0 0 0 0 0 0 0 0 0 0 0 0 0 0 0 0 0 0 0 0 0 0 0 0 0 0 0
0 0 0 0 0 0 0 0 0 0 0 0 0 0 0 0 0 0 0 0 0 0 0 0 0 0 0 0 0 0 0 0 0 0 0 0 0 0
0 0 0 0 0 0 0 0 0 0 0 0 0 0 0 0 0 0 0 0 0 0 0 0 0 0 0 0 0 0 0 0 0 0 0 0 0 0
0 0 0 0 0 0 0 0 0 0 0 0 0 0 0 0 0 0 0 0 0 0 0 0 0 0 0 0 0 0 0 0 0 0 0 0 0 0
0 0 0 0 0 0 0 0 0 0 0 0 0 0 0 0 0 0 0 0 0 0 0 0 0 0 0 0 0 0 0 0 0 0 0 0 0 0
0 0 0 0 0 0 0 0 0 0 0 0 0 0 0 0 0 0 0 0 0 0 0 0 0 0 0 0 0 0 0 0 0 0 0 0 0 0
Wind_Speed
7 7 6 6 6 6 5 5 5 4 2 1 2 3 3 4 5 6 7 10 11 10 10 10 11 11 11 11 11 11 10 8 6 5 5 7 8 9
6 7 7 6 5 5 5 5 6 5 2 1 2 3 4 6 8 8 9 13 13 12 12 12 13 14 14 14 14 14 13 13 12 11 9 8 6 6
7 7 7 6 5 5 4 4 5 4 3 2 3 3 5 6 7 7 6 7 8 13 14 14 14 15 15 15 15 15 15 15 15 14 13 12 10 9
7 7 7 6 5 4 3 4 3 3 5 7 4 3 4 6 6 7 6 7 7 13 15 15 15 15 16 16 16 16 16 16 15 15 15 14 13 12
6 6 6 5 4 3 3 3 3 4 5 7 6 3 3 5 6 7 8 6 8 10 14 15 15 16 16 15 15 15 15 15 14 14 13 13 12 12
5 5 5 4 3 3 3 3 4 6 7 8 7 5 4 4 5 6 6 5 6 8 9 10 14 16 15 15 15 14 13 13 13 12 12 12 11 11
3 3 2 1 1 1 3 4 6 7 7 8 7 6 5 5 5 4 6 5 5 6 6 6 6 6 8 11 13 13 12 12 11 11 11 10 10 10
3 1 1 2 4 6 7 7 8 9 8 7 7 7 6 5 4 5 5 5 4 4 5 5 5 6 6 6 8 11 11 11 10 10 9 9 8 9
3 3 3 3 5 7 10 11 9 9 8 7 8 7 7 5 5 5 4 4 4 4 6 7 6 6 5 6 8 9 10 10 10 9 9 8 8 8
4 4 4 5 5 8 9 9 8 7 7 6 7 7 7 5 5 5 5 5 4 4 6 7 6 6 6 4 6 8 9 9 9 9 9 8 7 7
5 5 6 7 8 10 10 11 10 8 11 14 12 11 11 9 5 4 4 5 5 3 3 5 6 6 4 4 4 6 7 8 8 8 9 9 7 7
5 5 8 10 10 10 9 11 11 9 9 10 9 8 7 6 5 3 2 4 5 3 2 4 6 5 4 3 4 4 4 4 5 7 9 10 9 5
6 6 7 12 12 10 9 8 11 10 9 8 6 5 4 4 5 5 4 3 5 4 2 2 3 3 4 4 3 4 5 4 3 3 5 8 10 7
6 7 8 13 13 11 9 11 13 10 6 6 5 4 5 6 6 6 7 8 8 6 5 4 3 2 4 5 4 3 4 4 3 3 3 6 8 10
5 11 13 13 12 9 12 13 9 5 5 6 6 5 6 6 5 5 5 7 7 7 7 6 4 3 4 4 4 3 3 3 3 3 2 3 3 3
6 12 15 11 7 9 9 6 4 3 5 6 7 7 6 5 4 4 4 5 5 4 5 6 7 6 4 4 4 3 3 3 2 2 1 2 3 4
9 8 7 7 6 6 5 4 3 3 5 6 7 7 5 5 4 5 4 5 5 5 3 3 4 5 5 4 3 3 3 3 2 1 0 1 2 4
10 9 8 8 7 7 7 6 4 4 5 6 6 5 5 4 4 4 3 5 6 5 4 4 3 3 2 4 4 2 3 2 1 1 1 0 1 3
7 7 7 7 6 6 6 6 5 5 5 6 5 5 5 5 4 4 3 4 5 5 4 4 3 4 4 4 0 2 2 1 2 2 2 1 1 2
6 7 7 7 6 6 6 6 6 6 5 5 5 5 5 5 4 4 4 4 5 5 4 3 3 3 2 3 3 2 2 2 2 0 1 2 1 2
7 6 7 7 6 6 6 6 7 6 5 5 5 5 5 5 4 4 4 5 4 4 5 4 2 2 1 1 1 3 3 5 4 3 2 2 1 1
6 5 6 6 6 6 6 7 7 6 6 5 5 4 4 4 4 5 6 4 2 4 6 5 3 2 2 2 1 3 4 4 5 7 6 5 3 2
5 5 5 6 6 6 6 7 8 6 5 5 6 4 4 4 4 5 5 4 4 5 6 6 5 3 3 3 2 1 3 4 4 4 4 10 14 13
Wind_Direction
272 272 265 263 258 255 252 242 239 245 236 127 93 70 79 81 87 89 89 82 82 81 80 80 78 77 77 79 79 78 78 80 93 122 159 183 198 210
270 269 267 263 260 255 247 241 231 226 212 133 112 111 99 101 90 92 91 85 78 80 79 80 79 76 73 74 76 77 78 79 81 85 92 103 124 141
281 280 275 267 258 254 245 235 227 207 176 127 105 107 104 108 106 104 101 89 82 80 82 80 79 77 74 73 72 74 76 77 78 79 80 82 86 95
286 287 284 278 265 257 239 228 214 186 158 142 130 118 107 114 112 110 105 98 92 84 83 81 79 78 77 76 74 72 73 74 75 77 77 78 80 82
284 284 283 276 265 245 223 205 179 157 141 136 133 121 110 115 109 107 108 106 102 99 88 82 81 79 76 76 76 75 74 74 73 72 73 73 74 75
280 285 288 275 261 233 211 180 154 139 132 130 130 128 119 120 119 122 120 121 118 108 95 95 91 84 80 79 80 80 78 79 79 78 77 75 73 73
269 287 298 347 324 209 182 151 142 135 134 132 133 131 132 137 138 140 129 127 120 125 125 123 111 95 85 79 80 82 83 82 82 81 80 82 81 78
239 229 185 133 109 103 111 123 133 140 143 139 137 139 140 139 134 138 139 142 140 151 135 121 108 93 85 82 87 89 87 84 82 81 81 80 81 84
210 195 182 143 138 121 108 103 101 113 130 139 139 141 139 145 145 140 140 134 124 141 125 114 105 96 93 99 107 101 94 89 84 79 76 77 81 87
191 173 152 145 144 135 126 110 94 88 103 112 117 118 118 126 132 136 132 117 113 122 127 123 123 115 110 113 128 120 111 99 87 76 66 63 75 96
166 154 148 142 140 136 124 116 106 93 85 95 100 105 106 105 111 127 141 133 129 128 122 122 132 129 126 130 146 138 119 107 93 80 66 54 67 105
152 144 143 139 140 136 129 127 122 121 118 110 107 113 113 106 98 111 156 146 135 122 113 117 142 141 133 144 151 157 138 124 108 85 72 60 58 82
156 150 140 138 137 132 126 124 130 130 126 123 122 122 115 96 75 53 47 104 117 100 96 111 144 147 130 139 149 161 154 151 149 118 87 76 67 66
156 148 143 141 135 132 126 132 136 133 129 128 126 125 112 92 81 72 66 72 84 84 49 51 95 105 116 126 129 132 132 136 138 140 134 119 93 84
153 141 140 138 131 127 135 145 151 148 141 137 131 118 107 107 104 93 83 79 73 70 55 40 52 65 91 109 111 118 119 114 108 108 125 145 145 128
135 133 132 135 128 125 139 157 182 168 142 127 117 114 117 127 133 133 122 107 94 79 61 54 49 55 64 78 96 98 95 102 97 85 86 142 137 125
140 137 141 144 142 144 156 171 181 151 128 122 124 133 146 156 155 152 146 138 126 124 113 88 80 85 78 62 79 82 91 92 100 101 253 189 150 134
150 148 152 156 158 159 165 169 165 147 136 133 138 147 153 150 142 146 156 146 142 144 148 152 142 125 101 48 35 48 69 73 55 296 313 44 130 130
163 156 160 162 164 162 164 162 157 146 140 141 145 147 143 139 142 153 153 132 127 129 137 148 160 171 179 157 315 333 92 83 15 12 8 354 334 150
188 169 170 166 166 164 164 158 147 141 141 142 142 142 142 144 149 152 143 133 127 127 127 113 83 65 61 111 145 196 223 149 127 34 331 325 11 86
199 177 169 164 163 160 154 144 140 143 147 142 141 144 146 147 153 147 120 121 139 145 131 112 119 137 84 72 168 158 190 208 191 185 210 266 280 253
196 173 163 158 155 152 143 141 144 147 149 146 141 146 150 153 148 136 135 152 171 137 120 129 165 186 212 237 234 166 177 198 227 227 232 224 215 229
182 170 158 154 149 144 145 149 148 149 156 152 145 155 155 149 146 142 150 171 159 141 143 157 175 200 219 216 237 223 188 198 201 195 235 231 232 245